Weather History for PANT - January, 2013

Change the Weather History Date:

Wednesday, January 30, 2013

  Actual Average Record
Temperature  
Mean Temperature 42 °F 37 °F  
Max Temperature 44 °F 42 °F 59 °F (2000)
Min Temperature 39 °F 33 °F 6 °F (1996)
Degree Days  
Heating Degree Days 23 28  
Month to date heating degree days 760 840  
Since 1 July heating degree days 3803 3751  
Cooling Degree Days 0    
Month to date cooling degree days 0  
Year to date cooling degree days 0  
Moisture  
Dew Point 40 °F    
Average Humidity 0    
Maximum Humidity 0    
Minimum Humidity 0    
Precipitation  
Precipitation 0.55 in 0.32 in 3.10 in (1976)
Month to date precipitation 7.68 10.41  
Year to date precipitation 7.68 10.41  
Snow  
Snow 0.00 in 0.30 in 5.10 in (1969)
Month to date snowfall 0.5 7.4  
Since 1 July snowfall 11.9 19.1  
Snow Depth 0.00 in    
Sea Level Pressure  
Sea Level Pressure 30.12 in    
Wind  
Wind Speed 8 mph (SE)    
Max Wind Speed 21 mph    
Max Gust Speed 29 mph    
Visibility 8 miles    
Events Rain    
T = Trace of Precipitation, MM = Missing Value Source: NWS Daily Summary

Daily Weather History Graph

Daily Weather History Graph

Search for Another Location

Airport or City:

Trip Planner

Search our weather history database for the weather conditions in past years. The results will help you decide how hot, cold, wet, or windy it might be!

Date:

Astronomy

Jan. 30, 2013 Rise Set
Actual Time 7:39 AM AKST 4:20 PM AKST
Civil Twilight 6:59 AM AKST 5:00 PM AKST
Nautical Twilight 6:15 AM AKST 5:44 PM AKST
Astronomical Twilight 5:33 AM AKST 6:26 PM AKST
Moon 9:18 PM AKST (1/30) 8:24 AM AKST (1/30)
Length of Visible Light 10h 00m
Length of Day
8h 40m
Waning Gibbous, 86% of the Moon is Illuminated
Jan 30
Waning Gibbous
Feb 3
Last Quarter
Feb 9
New
Feb 17
First Quarter
Feb 25
Full

Hourly Weather History & Observations

Time (AKST) Temp. Windchill Dew Point Humidity Pressure Visibility Wind Dir Wind Speed Gust Speed Precip Events Conditions
12:53 AM 39.9 °F 37.8 °F 37.9 °F 93% 30.18 in 10.0 mi SW 3.5 mph - N/A   Overcast
1:53 AM 39.9 °F - 37.9 °F 93% 30.19 in 10.0 mi Calm Calm - N/A   Overcast
3:02 AM 42.8 °F - 39.2 °F 87% 30.20 in 10.0 mi Calm Calm - N/A   Overcast
3:18 AM 41.0 °F - 39.2 °F 93% 30.20 in 10.0 mi Calm Calm - N/A   Overcast
3:53 AM 42.1 °F - 39.9 °F 92% 30.22 in 10.0 mi Calm Calm - N/A   Overcast
4:05 AM 42.8 °F 41.1 °F 41.0 °F 93% 30.21 in 10.0 mi SSW 3.5 mph - N/A   Overcast
4:39 AM 42.8 °F 41.1 °F 41.0 °F 93% 30.21 in 10.0 mi South 3.5 mph - N/A   Overcast
4:53 AM 43.0 °F 41.3 °F 41.0 °F 93% 30.22 in 10.0 mi South 3.5 mph - N/A   Overcast
5:53 AM 43.0 °F 41.3 °F 41.0 °F 93% 30.22 in 10.0 mi South 3.5 mph - 0.01 in   Overcast
6:23 AM 42.8 °F 39.3 °F 41.0 °F 93% 30.21 in 2.0 mi SE 5.8 mph - 0.01 in Rain Light Rain
6:36 AM 42.8 °F 40.1 °F 42.8 °F 100% 30.21 in 8.0 mi Variable 4.6 mph - 0.02 in Rain Light Rain
6:53 AM 43.0 °F 41.3 °F 41.0 °F 93% 30.22 in 10.0 mi South 3.5 mph - 0.02 in   Overcast
7:53 AM 43.0 °F - 41.0 °F 93% 30.22 in 10.0 mi Calm Calm - N/A   Overcast
8:16 AM 42.8 °F 41.1 °F 41.0 °F 93% 30.21 in 10.0 mi SE 3.5 mph - N/A   Overcast
8:37 AM 42.8 °F 40.1 °F 41.0 °F 93% 30.21 in 10.0 mi SSE 4.6 mph - N/A   Overcast
8:53 AM 42.1 °F 37.7 °F 41.0 °F 96% 30.22 in 10.0 mi SE 6.9 mph - N/A   Overcast
9:22 AM 42.8 °F 38.6 °F 41.0 °F 93% 30.22 in 4.0 mi SE 6.9 mph - N/A   Overcast
9:53 AM 43.0 °F 39.5 °F 41.0 °F 93% 30.22 in 10.0 mi SE 5.8 mph - N/A   Overcast
10:06 AM 42.8 °F 39.3 °F 42.8 °F 100% 30.21 in 10.0 mi SE 5.8 mph - N/A   Overcast
10:53 AM 43.0 °F 38.2 °F 41.0 °F 93% 30.22 in 10.0 mi SE 8.1 mph - N/A   Overcast
11:09 AM 42.8 °F 38.0 °F 41.0 °F 93% 30.20 in 10.0 mi SE 8.1 mph - N/A   Overcast
11:29 AM 42.8 °F 37.0 °F 41.0 °F 93% 30.20 in 10.0 mi SE 10.4 mph - N/A   Overcast
11:51 AM 42.8 °F 37.0 °F 41.0 °F 93% 30.19 in 8.0 mi ESE 10.4 mph - N/A   Overcast
11:52 AM 43.0 °F 37.7 °F 41.0 °F 93% 30.20 in 7.0 mi ESE 9.2 mph - N/A   Overcast
12:49 PM 42.8 °F 37.0 °F 39.2 °F 87% 30.17 in 10.0 mi ESE 10.4 mph - 0.00 in   Overcast
12:53 PM 43.0 °F 37.7 °F 39.9 °F 89% 30.18 in 10.0 mi ESE 9.2 mph - 0.00 in   Overcast
1:10 PM 42.8 °F 36.6 °F 39.2 °F 87% 30.16 in 10.0 mi ESE 11.5 mph - N/A   Overcast
1:43 PM 42.8 °F 36.6 °F 39.2 °F 87% 30.15 in 10.0 mi ESE 11.5 mph 16.1 mph N/A   Overcast
1:53 PM 43.0 °F 37.2 °F 39.0 °F 86% 30.15 in 10.0 mi ESE 10.4 mph - N/A   Overcast
2:53 PM 43.0 °F 37.7 °F 37.9 °F 82% 30.12 in 10.0 mi ESE 9.2 mph 18.4 mph 0.01 in Rain Light Rain
3:53 PM 43.0 °F 36.4 °F 37.9 °F 82% 30.08 in 10.0 mi ESE 12.7 mph 20.7 mph 0.03 in Rain Light Rain
4:53 PM 43.0 °F 36.4 °F 37.9 °F 82% 30.05 in 10.0 mi ESE 12.7 mph 19.6 mph 0.02 in Rain Light Rain
5:51 PM 42.8 °F 36.2 °F 37.4 °F 81% 30.00 in 10.0 mi ESE 12.7 mph 24.2 mph 0.04 in Rain Light Rain
5:53 PM 43.0 °F 36.4 °F 37.9 °F 82% 30.00 in 10.0 mi ESE 12.7 mph 24.2 mph 0.04 in Rain Light Rain
6:53 PM 43.0 °F 36.4 °F 39.0 °F 86% 29.96 in 7.0 mi ESE 12.7 mph 23.0 mph 0.05 in Rain Rain
7:45 PM 42.8 °F 35.1 °F 39.2 °F 87% 29.93 in 5.0 mi ESE 16.1 mph 24.2 mph 0.12 in Rain Rain
7:53 PM 43.0 °F 36.0 °F 39.9 °F 89% 29.93 in 7.0 mi ESE 13.8 mph 24.2 mph 0.14 in Rain Rain
8:06 PM 44.6 °F 38.1 °F 39.2 °F 81% 29.92 in 8.0 mi ESE 13.8 mph 24.2 mph 0.02 in Rain Light Rain
8:53 PM 44.1 °F 37.7 °F 41.0 °F 89% 29.91 in 8.0 mi ESE 12.7 mph 24.2 mph 0.06 in Rain Rain
9:53 PM 44.1 °F 36.2 °F 41.0 °F 89% 29.88 in 3.0 mi SE 18.4 mph 25.3 mph 0.04 in Rain Light Rain
10:00 PM 44.6 °F 37.4 °F 41.0 °F 87% 29.88 in 2.5 mi ESE 16.1 mph 25.3 mph 0.01 in Rain Light Rain
10:53 PM 44.1 °F 36.2 °F 41.0 °F 89% 29.87 in 5.0 mi SE 18.4 mph 26.5 mph 0.07 in Rain Rain
11:53 PM 44.1 °F 36.8 °F 42.1 °F 93% 29.88 in 3.0 mi ESE 16.1 mph 24.2 mph 0.05 in Rain Light Rain